Change the Weather History Date:

Tuesday, July 23, 2013

  Actual Average Record
Temperature  
Mean Temperature 70 °F -  
Max Temperature 73 °F - - ()
Min Temperature 66 °F - - ()
Cooling Degree Days 4    
Growing Degree Days 20 (Base 50)    
Moisture  
Dew Point 64 °F    
Average Humidity 88    
Maximum Humidity 94    
Minimum Humidity 69    
Precipitation  
Precipitation 0.00 in - - ()
Sea Level Pressure  
Sea Level Pressure 29.94 in    
Wind  
Wind Speed 7 mph ()    
Max Wind Speed 14 mph    
Max Gust Speed -    
Visibility 6.1 miles    
Events Rain    
T = Trace of Precipitation, MM = Missing Value Source: Averaged Metar Reports

Daily Weather History Graph

Daily Weather History Graph

Search for Another Location

Airport or City:

Trip Planner

Search our weather history database for the weather conditions in past years. The results will help you decide how hot, cold, wet, or windy it might be!

Date:

Astronomy

Jul. 23, 2013 Rise Set
Actual Time 5:59 AM GET 8:40 PM GET
Civil Twilight 5:27 AM GET 9:12 PM GET
Nautical Twilight 4:46 AM GET 9:52 PM GET
Astronomical Twilight 4:00 AM GET 10:38 PM GET
Moon 8:51 PM GET (7/23) 6:42 AM GET (7/23)
Length of Visible Light 15h 45m
Length of Day
14h 41m
Waxing Gibbous, 99% of the Moon is Illuminated
Jul 23
Waxing Gibbous
Jul 29
Last Quarter
Aug 7
New
Aug 14
First Quarter
Aug 21
Full

Hourly Weather History & Observations

Time (GET) Temp. Dew Point Humidity Pressure Visibility Wind Dir Wind Speed Gust Speed Precip Events Conditions
12:00 AM 69.8 °F 66.2 °F 88% 29.92 in 6.2 mi South 4.6 mph - N/A   Mostly Cloudy
12:30 AM 69.8 °F 66.2 °F 88% 29.92 in 6.2 mi South 4.6 mph - N/A   Mostly Cloudy
1:30 AM 68.0 °F 66.2 °F 94% 29.92 in 5.0 mi SSE 8.1 mph - N/A Rain Light Rain Showers
2:00 AM 68.0 °F 66.2 °F 94% 29.92 in 6.2 mi SE 5.8 mph - N/A Rain Light Rain Showers
2:30 AM 68.0 °F 66.2 °F 94% 29.89 in 6.2 mi SE 8.1 mph - N/A   Overcast
3:00 AM 68.0 °F 66.2 °F 94% 29.92 in 6.2 mi SSE 6.9 mph - N/A Rain Light Rain Showers
3:30 AM 68.0 °F 66.2 °F 94% 29.92 in 6.2 mi SE 5.8 mph - N/A   Overcast
4:00 AM 68.0 °F 66.2 °F 94% 29.92 in 5.0 mi SSW 3.5 mph - N/A Rain Light Rain Showers
4:30 AM 68.0 °F 66.2 °F 94% 29.89 in 6.2 mi SSW 6.9 mph - N/A Rain Light Rain Showers
5:00 AM 68.0 °F 64.4 °F 88% 29.89 in 6.2 mi SSE 5.8 mph - N/A Rain Light Rain Showers
5:30 AM 66.2 °F 64.4 °F 94% 29.89 in 6.2 mi SE 9.2 mph - N/A   Overcast
6:00 AM 68.0 °F 64.4 °F 88% 29.89 in 6.2 mi SE 9.2 mph - N/A   Overcast
6:30 AM 66.2 °F 64.4 °F 94% 29.89 in 6.2 mi SE 8.1 mph - N/A   Overcast
7:00 AM 66.2 °F 64.4 °F 94% 29.89 in 6.2 mi SE 10.4 mph - N/A   Mostly Cloudy
7:30 AM 66.2 °F 62.6 °F 88% 29.89 in 6.2 mi SE 9.2 mph - N/A   Mostly Cloudy
8:00 AM 66.2 °F 62.6 °F 88% 29.89 in 6.2 mi SE 10.4 mph - N/A   Scattered Clouds
8:30 AM 68.0 °F 62.6 °F 83% 29.89 in 6.2 mi SE 12.7 mph - N/A   Mostly Cloudy
9:00 AM 68.0 °F 62.6 °F 83% 29.92 in 6.2 mi SE 11.5 mph - N/A   Mostly Cloudy
9:30 AM 68.0 °F 62.6 °F 83% 29.92 in 6.2 mi SE 10.4 mph - N/A   Mostly Cloudy
10:00 AM 68.0 °F 62.6 °F 83% 29.92 in 6.2 mi SE 9.2 mph - N/A   Mostly Cloudy
10:30 AM 69.8 °F 62.6 °F 78% 29.92 in 6.2 mi SE 8.1 mph - N/A   Mostly Cloudy
11:00 AM 69.8 °F 64.4 °F 83% 29.92 in 6.2 mi SE 9.2 mph - N/A   Mostly Cloudy
11:30 AM 71.6 °F 62.6 °F 73% 29.92 in 6.2 mi SE 8.1 mph - N/A   Mostly Cloudy
12:00 PM 71.6 °F 62.6 °F 73% 29.92 in 6.2 mi SE 8.1 mph - N/A   Mostly Cloudy
12:30 PM 71.6 °F 64.4 °F 78% 29.92 in 6.2 mi SE 5.8 mph - N/A   Mostly Cloudy
1:00 PM 73.4 °F 62.6 °F 69% 29.95 in 6.2 mi SE 4.6 mph - N/A   Mostly Cloudy
1:30 PM 73.4 °F 64.4 °F 73% 29.95 in 6.2 mi South 4.6 mph - N/A   Mostly Cloudy
2:00 PM 73.4 °F 64.4 °F 73% 29.95 in 6.2 mi SW 5.8 mph - N/A   Mostly Cloudy
2:30 PM 68.0 °F 64.4 °F 88% 29.95 in 6.2 mi North 10.4 mph - N/A Rain Light Rain Showers
3:00 PM 68.0 °F 64.4 °F 88% 29.95 in 5.0 mi Variable 2.3 mph - N/A Rain Light Rain Showers
3:30 PM 66.2 °F 64.4 °F 94% 29.95 in 6.2 mi ESE 4.6 mph - N/A Rain Light Rain Showers
4:00 PM 66.2 °F 64.4 °F 94% 29.95 in 6.2 mi SE 6.9 mph - N/A Rain Light Rain Showers
4:30 PM 66.2 °F 64.4 °F 94% 29.95 in 6.2 mi SE 10.4 mph - N/A   Mostly Cloudy
5:00 PM 68.0 °F 64.4 °F 88% 29.95 in 6.2 mi SE 12.7 mph - N/A   Mostly Cloudy
5:30 PM 68.0 °F 64.4 °F 88% 29.98 in 6.2 mi East 10.4 mph - N/A   Mostly Cloudy
6:00 PM 66.2 °F 62.6 °F 88% 29.98 in 6.2 mi NNE 5.8 mph - N/A Rain Light Rain Showers
6:30 PM 66.2 °F 64.4 °F 94% 29.98 in 6.2 mi ESE 9.2 mph - N/A Rain Light Rain Showers
7:00 PM 66.2 °F 64.4 °F 94% 29.98 in 6.2 mi SSE 13.8 mph - N/A   Mostly Cloudy
7:30 PM 66.2 °F 64.4 °F 94% 29.98 in 6.2 mi SE 10.4 mph - N/A   Mostly Cloudy
8:00 PM 66.2 °F 62.6 °F 88% 29.98 in 6.2 mi SE 9.2 mph - N/A   Mostly Cloudy
8:30 PM 66.2 °F 62.6 °F 88% 29.98 in 6.2 mi SE 8.1 mph - N/A Rain Light Rain Showers
9:00 PM 66.2 °F 64.4 °F 94% 30.01 in 6.2 mi SSE 5.8 mph - N/A   Mostly Cloudy
9:30 PM 66.2 °F 64.4 °F 94% 30.01 in 6.2 mi SE 8.1 mph - N/A   Mostly Cloudy
10:00 PM 66.2 °F 64.4 °F 94% 30.01 in 6.2 mi SE 8.1 mph - N/A   Mostly Cloudy
10:30 PM 66.2 °F 62.6 °F 88% 30.01 in 6.2 mi SE 9.2 mph - N/A   Mostly Cloudy
11:00 PM 66.2 °F 62.6 °F 88% 30.01 in 6.2 mi SE 10.4 mph - N/A   Mostly Cloudy
11:30 PM 66.2 °F 62.6 °F 88% 30.01 in 6.2 mi SE 9.2 mph - N/A   Mostly Cloudy